| time (UTC) | temp F | wind direction | speed MPH | gust MPH | rain 1hr in | rain 24hr in | rain mn in | humidity % | barometer mb |
| 20260510082523 | 54 | 326 | 2.0 | 3.0 | 0.00 | 0.01 | 0.00 | 98 | 1011.3 |
| 20260510081523 | 55 | 326 | 4.0 | 4.0 | 0.00 | 0.01 | 0.00 | 98 | 1011.2 |
| 20260510080525 | 55 | 324 | 3.0 | 4.0 | 0.00 | 0.01 | 0.00 | 98 | 1011.0 |
| 20260510075523 | 55 | 334 | 3.0 | 3.0 | 0.00 | 0.01 | 0.00 | 98 | 1010.9 |
| 20260510074524 | 55 | 0.0 | 0.0 | 0.00 | 0.01 | 0.00 | 98 | 1010.8 | |
| 20260510073524 | 55 | 0.0 | 0.0 | 0.00 | 0.01 | 0.00 | 98 | 1010.8 | |
| 20260510072523 | 55 | 0.0 | 0.0 | 0.00 | 0.01 | 0.00 | 97 | 1010.8 | |
| 20260510071524 | 56 | 29 | 0.0 | 0.0 | 0.00 | 0.01 | 0.00 | 97 | 1010.6 |
| 20260510070524 | 56 | 354 | 1.0 | 2.0 | 0.00 | 0.01 | 0.00 | 97 | 1010.5 |
| 20260510065525 | 56 | 34 | 0.0 | 1.0 | 0.00 | 0.01 | 0.00 | 97 | 1010.4 |
| 20260510064525 | 56 | 0.0 | 0.0 | 0.00 | 0.01 | 0.00 | 97 | 1010.4 | |
| 20260510063524 | 56 | 39 | 0.0 | 2.0 | 0.00 | 0.01 | 0.00 | 96 | 1010.4 |
| 20260510062524 | 56 | 21 | 0.0 | 2.0 | 0.00 | 0.01 | 0.00 | 95 | 1010.4 |
| 20260510061525 | 57 | 25 | 2.0 | 3.0 | 0.00 | 0.01 | 0.00 | 95 | 1010.5 |
| 20260510060545 | 57 | 9 | 2.0 | 2.0 | 0.00 | 0.01 | 0.00 | 94 | 1010.4 |
| 20260510055525 | 57 | 44 | 2.0 | 3.0 | 0.00 | 0.01 | 0.00 | 94 | 1010.4 |
| 20260510054519 | 58 | 356 | 4.0 | 5.0 | 0.00 | 0.01 | 0.00 | 93 | 1010.4 |
| 20260510053520 | 58 | 333 | 4.0 | 6.0 | 0.00 | 0.01 | 0.00 | 93 | 1010.5 |
| 20260510052537 | 58 | 341 | 3.0 | 5.0 | 0.00 | 0.01 | 0.00 | 93 | 1010.5 |
| 20260510051517 | 58 | 354 | 3.0 | 5.0 | 0.00 | 0.01 | 0.00 | 92 | 1010.5 |
| 20260510050518 | 58 | 22 | 3.0 | 4.0 | 0.00 | 0.01 | 0.00 | 91 | 1010.4 |
| 20260510045519 | 59 | 48 | 3.0 | 4.0 | 0.00 | 0.01 | 0.00 | 91 | 1010.5 |
| 20260510044538 | 59 | 58 | 2.0 | 3.0 | 0.00 | 0.01 | 0.00 | 90 | 1010.5 |
| 20260510043538 | 59 | 23 | 3.0 | 4.0 | 0.00 | 0.01 | 0.00 | 90 | 1010.6 |
| 20260510042518 | 59 | 42 | 3.0 | 4.0 | 0.00 | 0.01 | 0.00 | 89 | 1010.6 |
| 20260510041518 | 60 | 17 | 3.0 | 5.0 | 0.00 | 0.01 | 0.00 | 89 | 1010.5 |
| 20260510040518 | 60 | 22 | 3.0 | 4.0 | 0.00 | 0.01 | 0.00 | 88 | 1010.5 |
| 20260510035518 | 60 | 17 | 2.0 | 3.0 | 0.00 | 0.01 | 0.01 | 87 | 1010.4 |
| 20260510034519 | 60 | 32 | 2.0 | 4.0 | 0.00 | 0.01 | 0.01 | 86 | 1010.3 |
| 20260510033556 | 61 | 18 | 3.0 | 4.0 | 0.00 | 0.01 | 0.01 | 85 | 1010.4 |
| 20260510032520 | 61 | 5 | 3.0 | 5.0 | 0.00 | 0.01 | 0.01 | 84 | 1010.4 |
| 20260510031519 | 62 | 22 | 3.0 | 5.0 | 0.00 | 0.01 | 0.01 | 83 | 1010.3 |
| 20260510030519 | 62 | 3 | 4.0 | 5.0 | 0.00 | 0.01 | 0.01 | 82 | 1010.3 |
| 20260510025519 | 62 | 358 | 4.0 | 6.0 | 0.00 | 0.01 | 0.01 | 81 | 1010.2 |
| 20260510024516 | 63 | 20 | 3.0 | 7.0 | 0.00 | 0.01 | 0.01 | 80 | 1010.2 |
| 20260510023536 | 63 | 11 | 4.0 | 6.0 | 0.00 | 0.01 | 0.01 | 80 | 1010.1 |
| 20260510022516 | 64 | 6 | 5.0 | 8.0 | 0.00 | 0.01 | 0.01 | 79 | 1010.0 |
| 20260510021520 | 64 | 5 | 5.0 | 7.0 | 0.00 | 0.01 | 0.01 | 77 | 1010.0 |
| 20260510020520 | 64 | 2 | 3.0 | 5.0 | 0.00 | 0.01 | 0.01 | 76 | 1009.9 |
| 20260510015537 | 65 | 353 | 4.0 | 5.0 | 0.00 | 0.01 | 0.01 | 77 | 1009.8 |
| 20260510014517 | 66 | 16 | 4.0 | 6.0 | 0.00 | 0.01 | 0.01 | 72 | 1009.7 |
| 20260510013517 | 67 | 352 | 2.0 | 3.0 | 0.00 | 0.01 | 0.01 | 70 | 1009.5 |
| 20260510012517 | 67 | 101 | 1.0 | 3.0 | 0.00 | 0.01 | 0.01 | 70 | 1009.4 |
| 20260510011519 | 67 | 130 | 3.0 | 8.0 | 0.00 | 0.01 | 0.01 | 70 | 1009.3 |
| 20260510010539 | 67 | 87 | 2.0 | 4.0 | 0.00 | 0.01 | 0.01 | 71 | 1009.2 |
| 20260510005558 | 67 | 70 | 4.0 | 6.0 | 0.00 | 0.01 | 0.01 | 72 | 1009.1 |
| 20260510004519 | 67 | 38 | 3.0 | 6.0 | 0.00 | 0.01 | 0.01 | 73 | 1009.0 |
| 20260510003518 | 67 | 19 | 4.0 | 5.0 | 0.00 | 0.01 | 0.01 | 72 | 1009.0 |
| 20260510002518 | 68 | 33 | 3.0 | 5.0 | 0.00 | 0.01 | 0.01 | 71 | 1008.8 |
| 20260510001539 | 69 | 26 | 4.0 | 7.0 | 0.00 | 0.01 | 0.01 | 69 | 1008.8 |
| 20260510000515 | 70 | 14 | 4.0 | 7.0 | 0.00 | 0.01 | 0.01 | 64 | 1008.7 |
| 20260509235518 | 72 | 136 | 0.0 | 2.0 | 0.00 | 0.01 | 0.01 | 55 | 1008.6 |
| 20260509234519 | 72 | 150 | 2.0 | 3.0 | 0.00 | 0.01 | 0.01 | 55 | 1008.5 |
| 20260509233519 | 73 | 141 | 2.0 | 3.0 | 0.00 | 0.01 | 0.01 | 55 | 1008.4 |
| 20260509232519 | 73 | 148 | 0.0 | 2.0 | 0.00 | 0.01 | 0.01 | 53 | 1008.4 |
| 20260509231516 | 73 | 153 | 2.0 | 4.0 | 0.00 | 0.01 | 0.01 | 54 | 1008.3 |
| 20260509230516 | 72 | 157 | 2.0 | 4.0 | 0.00 | 0.01 | 0.01 | 54 | 1008.4 |
| 20260509225518 | 72 | 158 | 4.0 | 8.0 | 0.00 | 0.01 | 0.01 | 54 | 1008.3 |
| 20260509224519 | 72 | 163 | 4.0 | 7.0 | 0.00 | 0.01 | 0.01 | 53 | 1008.4 |
| 20260509223541 | 73 | 162 | 7.0 | 10.0 | 0.00 | 0.01 | 0.01 | 53 | 1008.3 |
| 20260509222517 | 73 | 162 | 8.0 | 13.0 | 0.00 | 0.01 | 0.01 | 53 | 1008.4 |
| 20260509221517 | 73 | 163 | 8.0 | 13.0 | 0.00 | 0.01 | 0.01 | 53 | 1008.4 |
| 20260509220537 | 72 | 160 | 7.0 | 12.0 | 0.00 | 0.01 | 0.01 | 53 | 1008.4 |
| 20260509215518 | 72 | 159 | 9.0 | 12.0 | 0.00 | 0.01 | 0.01 | 53 | 1008.4 |
| 20260509214519 | 73 | 209 | 3.0 | 8.0 | 0.00 | 0.01 | 0.01 | 52 | 1008.4 |
| 20260509213518 | 73 | 170 | 7.0 | 13.0 | 0.00 | 0.01 | 0.01 | 52 | 1008.3 |
| 20260509212517 | 73 | 204 | 2.0 | 5.0 | 0.00 | 0.01 | 0.01 | 52 | 1008.4 |
| 20260509211519 | 73 | 167 | 6.0 | 14.0 | 0.00 | 0.01 | 0.01 | 53 | 1008.3 |
| 20260509210518 | 72 | 165 | 5.0 | 12.0 | 0.00 | 0.01 | 0.01 | 53 | 1008.2 |
| 20260509205518 | 72 | 166 | 5.0 | 11.0 | 0.00 | 0.01 | 0.01 | 53 | 1008.2 |
| 20260509204518 | 71 | 171 | 5.0 | 11.0 | 0.00 | 0.01 | 0.01 | 54 | 1008.1 |
| 20260509203518 | 71 | 166 | 9.0 | 15.0 | 0.00 | 0.01 | 0.01 | 56 | 1008.0 |
| 20260509202519 | 71 | 160 | 6.0 | 12.0 | 0.00 | 0.01 | 0.01 | 56 | 1008.1 |
| 20260509201519 | 71 | 169 | 6.0 | 13.0 | 0.00 | 0.01 | 0.01 | 56 | 1008.3 |
| 20260509200519 | 70 | 162 | 6.0 | 13.0 | 0.00 | 0.01 | 0.01 | 57 | 1008.5 |
| 20260509195516 | 70 | 170 | 4.0 | 12.0 | 0.00 | 0.01 | 0.01 | 57 | 1008.7 |
| 20260509194516 | 70 | 201 | 4.0 | 11.0 | 0.00 | 0.01 | 0.01 | 57 | 1008.8 |
| 20260509193539 | 70 | 180 | 4.0 | 13.0 | 0.00 | 0.01 | 0.01 | 57 | 1009.1 |
| 20260509192539 | 69 | 223 | 4.0 | 11.0 | 0.00 | 0.01 | 0.01 | 59 | 1009.3 |
| 20260509191540 | 69 | 191 | 4.0 | 8.0 | 0.01 | 0.01 | 0.01 | 60 | 1009.1 |
| 20260509190516 | 68 | 210 | 4.0 | 12.0 | 0.01 | 0.01 | 0.01 | 63 | 1009.1 |
| 20260509185517 | 67 | 181 | 1.0 | 5.0 | 0.01 | 0.01 | 0.01 | 65 | 1009.3 |
| 20260509184517 | 67 | 175 | 4.0 | 10.0 | 0.01 | 0.01 | 0.01 | 63 | 1009.5 |
| 20260509183517 | 67 | 172 | 4.0 | 9.0 | 0.01 | 0.01 | 0.01 | 65 | 1009.6 |
| 20260509182520 | 68 | 189 | 4.0 | 10.0 | 0.01 | 0.01 | 0.01 | 64 | 1009.8 |
| 20260509181517 | 69 | 180 | 8.0 | 17.0 | 0.00 | 0.00 | 0.00 | 56 | 1009.8 |
| 20260509180517 | 69 | 180 | 8.0 | 18.0 | 0.00 | 0.00 | 0.00 | 55 | 1009.8 |
| 20260509175518 | 69 | 185 | 7.0 | 14.0 | 0.00 | 0.00 | 0.00 | 55 | 1010.0 |
| 20260509174518 | 69 | 192 | 5.0 | 14.0 | 0.00 | 0.00 | 0.00 | 55 | 1010.1 |
| 20260509173518 | 69 | 196 | 4.0 | 13.0 | 0.00 | 0.00 | 0.00 | 55 | 1010.1 |
| 20260509172518 | 69 | 205 | 4.0 | 11.0 | 0.00 | 0.00 | 0.00 | 55 | 1010.2 |
| 20260509171539 | 68 | 181 | 8.0 | 14.0 | 0.00 | 0.00 | 0.00 | 56 | 1010.2 |
| 20260509170519 | 68 | 187 | 5.0 | 18.0 | 0.00 | 0.00 | 0.00 | 56 | 1010.3 |
| 20260509165518 | 68 | 185 | 5.0 | 13.0 | 0.00 | 0.00 | 0.00 | 57 | 1010.4 |
| 20260509164519 | 68 | 188 | 6.0 | 16.0 | 0.00 | 0.00 | 0.00 | 56 | 1010.4 |
| 20260509163520 | 67 | 201 | 4.0 | 10.0 | 0.00 | 0.00 | 0.00 | 57 | 1010.4 |
| 20260509162539 | 67 | 241 | 5.0 | 12.0 | 0.00 | 0.00 | 0.00 | 57 | 1010.5 |
| 20260509161557 | 67 | 218 | 2.0 | 8.0 | 0.00 | 0.00 | 0.00 | 59 | 1010.5 |
| 20260509160539 | 66 | 187 | 4.0 | 12.0 | 0.00 | 0.00 | 0.00 | 59 | 1010.5 |
| 20260509155519 | 66 | 234 | 3.0 | 11.0 | 0.00 | 0.00 | 0.00 | 60 | 1010.7 |
| 20260509154539 | 65 | 237 | 7.0 | 14.0 | 0.00 | 0.00 | 0.00 | 61 | 1010.8 |
| 20260509153519 | 65 | 177 | 6.0 | 16.0 | 0.00 | 0.00 | 0.00 | 60 | 1010.9 |
| 20260509152516 | 65 | 176 | 8.0 | 14.0 | 0.00 | 0.00 | 0.00 | 62 | 1010.8 |
| 20260509151517 | 64 | 176 | 6.0 | 15.0 | 0.00 | 0.00 | 0.00 | 62 | 1011.0 |
| 20260509150537 | 63 | 178 | 4.0 | 11.0 | 0.00 | 0.00 | 0.00 | 64 | 1011.1 |
| 20260509145520 | 62 | 180 | 8.0 | 14.0 | 0.00 | 0.00 | 0.00 | 65 | 1011.3 |
| 20260509144520 | 62 | 179 | 6.0 | 10.0 | 0.00 | 0.00 | 0.00 | 65 | 1011.5 |
| 20260509143517 | 62 | 243 | 4.0 | 9.0 | 0.00 | 0.00 | 0.00 | 66 | 1011.6 |
| 20260509142517 | 61 | 169 | 3.0 | 11.0 | 0.00 | 0.00 | 0.00 | 66 | 1011.7 |
| 20260509141517 | 61 | 183 | 5.0 | 13.0 | 0.00 | 0.00 | 0.00 | 66 | 1011.7 |
| 20260509140518 | 61 | 172 | 4.0 | 10.0 | 0.00 | 0.00 | 0.00 | 67 | 1011.6 |
| 20260509135518 | 61 | 179 | 4.0 | 11.0 | 0.00 | 0.00 | 0.00 | 67 | 1011.7 |
| 20260509134519 | 60 | 161 | 3.0 | 7.0 | 0.00 | 0.00 | 0.00 | 67 | 1011.7 |
| 20260509133518 | 60 | 200 | 3.0 | 9.0 | 0.00 | 0.00 | 0.00 | 67 | 1011.7 |
| 20260509132518 | 60 | 160 | 3.0 | 12.0 | 0.00 | 0.00 | 0.00 | 67 | 1011.8 |
| 20260509131518 | 60 | 188 | 4.0 | 11.0 | 0.00 | 0.00 | 0.00 | 67 | 1011.7 |
| 20260509130520 | 59 | 179 | 8.0 | 16.0 | 0.00 | 0.00 | 0.00 | 69 | 1011.6 |
| 20260509125519 | 59 | 0.0 | 0.0 | 0.00 | 0.00 | 0.00 | 69 | 1011.5 | |
| 20260509124516 | 59 | 180 | 7.0 | 14.0 | 0.00 | 0.00 | 0.00 | 68 | 1011.6 |
| 20260509123519 | 59 | 179 | 7.0 | 16.0 | 0.00 | 0.00 | 0.00 | 68 | 1011.5 |
| 20260509122519 | 59 | 182 | 6.0 | 16.0 | 0.00 | 0.00 | 0.00 | 67 | 1011.6 |
| 20260509121519 | 59 | 184 | 7.0 | 15.0 | 0.00 | 0.00 | 0.00 | 67 | 1011.6 |
| 20260509120519 | 59 | 185 | 11.0 | 17.0 | 0.00 | 0.00 | 0.00 | 67 | 1011.6 |
| 20260509115516 | 59 | 184 | 8.0 | 16.0 | 0.00 | 0.00 | 0.00 | 65 | 1011.6 |
| 20260509114536 | 59 | 183 | 7.0 | 18.0 | 0.00 | 0.00 | 0.00 | 63 | 1011.6 |
| 20260509113516 | 60 | 180 | 10.0 | 14.0 | 0.00 | 0.00 | 0.00 | 60 | 1011.4 |
| 20260509112520 | 60 | 181 | 5.0 | 11.0 | 0.00 | 0.00 | 0.00 | 59 | 1011.4 |
| 20260509111520 | 60 | 178 | 6.0 | 14.0 | 0.00 | 0.00 | 0.00 | 58 | 1011.4 |
| 20260509110517 | 60 | 179 | 4.0 | 11.0 | 0.00 | 0.00 | 0.00 | 57 | 1011.4 |
| 20260509105517 | 60 | 181 | 7.0 | 15.0 | 0.00 | 0.00 | 0.00 | 57 | 1011.3 |
| 20260509104517 | 60 | 181 | 9.0 | 15.0 | 0.00 | 0.00 | 0.00 | 57 | 1011.2 |
| 20260509103519 | 60 | 179 | 8.0 | 12.0 | 0.00 | 0.00 | 0.00 | 57 | 1011.2 |
| 20260509102519 | 60 | 176 | 7.0 | 12.0 | 0.00 | 0.00 | 0.00 | 58 | 1011.1 |
| 20260509101518 | 60 | 173 | 7.0 | 11.0 | 0.00 | 0.00 | 0.00 | 59 | 1011.1 |
| 20260509100518 | 60 | 170 | 5.0 | 9.0 | 0.00 | 0.00 | 0.00 | 59 | 1011.0 |
| 20260509095519 | 60 | 173 | 3.0 | 7.0 | 0.00 | 0.00 | 0.00 | 58 | 1011.0 |
| 20260509094518 | 60 | 171 | 4.0 | 7.0 | 0.00 | 0.00 | 0.00 | 58 | 1010.9 |
| 20260509093518 | 60 | 170 | 4.0 | 8.0 | 0.00 | 0.00 | 0.00 | 56 | 1011.1 |
| 20260509092539 | 60 | 170 | 4.0 | 9.0 | 0.00 | 0.00 | 0.00 | 56 | 1011.1 |
| 20260509091518 | 60 | 175 | 3.0 | 12.0 | 0.00 | 0.00 | 0.00 | 56 | 1011.1 |
| 20260509090518 | 60 | 168 | 4.0 | 11.0 | 0.00 | 0.00 | 0.00 | 57 | 1011.1 |
| 20260509085518 | 60 | 174 | 4.0 | 9.0 | 0.00 | 0.00 | 0.00 | 56 | 1011.2 |
| 20260509084518 | 60 | 174 | 3.0 | 9.0 | 0.00 | 0.00 | 0.00 | 56 | 1011.4 |
| 20260509083519 | 61 | 179 | 2.0 | 9.0 | 0.00 | 0.00 | 0.00 | 56 | 1011.4 |